Weather in Nigir

Russia / Khabarovsk Krai     52°07′10″N   141°17′10″E
temp.,
°C
wind,
m/s
gust,
m/s
humid.,
%
clouds,
%
prec.,
mm/h
press.,
hPa
HPBL,
m
27 february, sat
sat2701:00−21w229044 0.0 102820
04:00−22wnw229128 0.0 102820
07:00−23w12897 0.0 102820
10:00−17sw12834 0.0 1028128
13:00−11ssw24780 0.0 1027410
16:00−11sw35855 0.0 1025389
19:00−16sw239377 0.0 102523
22:00−16sw229080 0.0 102323
28 february, sun
sun2801:00−16s1295100 0.0 101921
04:00−13s2397100 0.3 1014125
07:00−11w2396100 1.6 101192
10:00−9w51185100 1.8 1010561
13:00−8wnw588023 0.0 1010830
16:00−8wnw468261 0.1 1010745
19:00−13nnw338682 0.1 101328
22:00−19wnw228464 0.1 101520
1 march, mon
mon101:00−23wnw338812 0.0 101626
04:00−24w35906 0.0 101880
07:00−21wnw498764 0.0 1019231
10:00−17wnw6118082 0.0 1021601
13:00−15nw7127266 0.0 10211145
16:00−15wnw587771 0.1 10221325
19:00−18wsw259597 0.1 1024135
22:00−20w378776 0.1 1025130
2 march, tue
tue201:00−24wnw22956 0.0 102520
04:00−25wnw229521 0.0 102621
07:00−26wnw229340 0.0 102719
10:00−22wsw248341 0.0 1027344
13:00−19wsw57670 0.0 10271038
16:00−18w477120 0.0 10271121
19:00−24wsw128467 0.0 102820
22:00−25w238748 0.0 102922
3 march, wed
wed301:00−26w33790 0.0 102723
04:00−27w33860 0.0 102725
07:00−27w33800 0.0 102624
10:00−21w36760 0.0 1025243
13:00−16wsw36650 0.0 1022647
16:00−15wsw35730 0.0 1020443
19:00−20ssw34910 0.0 101839
22:00−22sw23930 0.0 101722